SCP
0 0 0 0 0 0 0 0 0 1 1 1 1 1 1 1 2 2 2 3 3 3 3 2 2 3 3 3 3 3 2 2 2 2 2 3 3 3 3 3 3 2 2 2
0 0 0 0 0 0 0 0 0 0 1 1 1 1 1 1 1 2 2 3 3 3 2 2 2 3 3 4 4 3 2 2 2 2 2 2 3 3 3 3 3 2 2 2
0 0 0 0 0 0 0 0 0 0 0 1 1 1 1 1 1 1 1 2 2 2 2 3 3 3 4 4 4 3 2 2 2 2 2 2 2 3 3 3 3 2 2 2
0 0 0 0 0 0 0 0 0 0 0 0 0 1 1 1 1 1 1 1 2 2 2 3 4 5 5 4 4 3 2 2 2 1 2 2 2 3 3 3 2 2 2 2
0 0 0 0 0 0 0 0 0 0 0 0 0 0 1 1 1 1 1 1 2 2 2 4 6 7 6 5 4 3 2 2 1 1 2 2 2 2 2 2 2 3 2 2
0 0 0 0 0 0 0 0 0 0 0 0 0 0 1 1 1 1 1 2 2 2 3 5 8 9 7 5 4 3 2 2 1 1 1 2 2 2 1 2 2 3 2 2
0 0 0 0 0 0 0 0 0 0 0 0 0 0 1 1 1 1 2 2 2 2 3 7 9 8 6 5 4 3 2 1 1 1 1 1 1 1 1 1 2 2 2 2
0 0 0 0 0 0 0 0 0 0 0 0 0 0 1 1 1 1 2 2 2 3 4 6 7 6 5 4 3 2 1 1 1 1 1 1 1 1 1 1 1 1 1 1
0 0 0 0 0 0 0 0 0 0 0 0 0 0 1 1 1 1 2 2 2 2 3 4 4 4 4 3 2 1 1 1 1 2 1 1 1 1 1 1 1 1 1 1
0 0 0 0 0 0 0 0 0 0 0 0 0 0 1 1 1 2 2 2 2 2 2 3 3 3 3 2 2 1 1 1 1 2 1 1 1 1 1 1 1 1 1 1
0 0 0 0 0 0 0 0 0 0 0 0 0 0 1 1 1 1 2 2 2 2 2 2 2 2 2 1 1 1 1 1 1 1 1 1 1 1 1 1 1 1 1 1
0 0 0 0 0 0 0 0 0 0 0 0 0 0 1 1 1 1 1 2 2 1 1 2 2 1 1 1 1 0 0 0 0 1 1 1 1 1 0 0 0 0 0 0
1 1 1 0 0 0 0 0 0 0 0 0 0 0 1 1 1 1 1 2 2 1 1 1 1 1 1 1 0 0 0 0 0 0 0 0 1 1 0 0 0 0 0 0
1 1 1 0 0 0 0 0 0 0 0 0 0 0 0 1 1 1 1 2 1 1 1 1 1 1 1 0 0 0 0 0 0 0 0 0 0 0 0 0 0 0 0 0
1 1 1 0 0 0 0 0 0 0 0 0 0 0 0 0 1 1 2 2 1 1 1 1 1 1 1 0 0 0 0 0 0 0 0 0 0 0 0 0 0 0 1 1
1 1 1 1 0 0 0 0 0 0 0 0 0 0 0 0 1 2 2 2 1 1 1 1 1 1 1 1 1 0 0 0 0 0 0 0 0 0 0 0 0 1 1 1
1 1 1 1 0 0 0 0 0 0 0 0 0 0 0 0 1 2 2 2 1 1 1 0 1 1 1 1 1 1 1 0 0 0 0 0 0 0 0 0 1 1 1 1
2 1 1 1 1 0 0 0 0 0 0 0 0 0 0 0 1 1 1 1 1 1 1 1 1 1 1 1 1 1 1 1 0 0 0 0 0 0 0 0 1 1 1 1
1 1 1 1 1 1 0 0 0 0 0 0 0 0 0 1 1 1 1 1 1 1 1 1 2 2 2 1 1 1 1 1 0 0 0 0 0 0 0 0 1 1 1 1
1 1 1 1 1 1 0 0 0 0 0 0 0 0 1 1 1 1 1 1 1 1 2 2 2 2 2 2 2 1 1 1 0 0 0 0 0 0 0 1 1 1 1 1
1 1 1 1 1 0 0 1 1 1 1 1 1 1 1 1 1 1 1 1 1 1 2 2 3 3 2 2 2 2 1 1 0 0 0 0 0 0 0 1 1 1 1 1
1 1 1 1 1 1 1 1 1 1 1 1 1 1 1 1 1 1 2 1 1 1 1 2 2 2 2 3 3 2 1 1 1 1 1 1 1 1 1 1 1 1 1 1
1 1 1 1 1 1 2 2 2 2 2 1 1 1 1 1 2 2 2 1 1 1 1 1 1 1 2 2 2 2 1 1 1 1 1 1 1 1 1 1 2 2 2 1
1 1 1 1 1 1 2 2 2 2 2 2 2 2 2 2 2 2 2 2 1 1 1 1 1 1 1 1 1 1 1 1 1 1 1 1 1 2 2 2 2 2 2 2
1 1 1 1 1 2 2 2 1 2 2 2 2 2 2 2 2 2 2 2 1 1 1 1 1 1 1 1 1 0 1 1 1 1 1 1 1 1 2 2 2 2 2 1
1 1 1 1 2 2 2 2 1 1 2 2 3 3 2 2 2 2 2 2 1 1 1 1 1 1 1 1 0 0 0 1 1 1 1 1 1 1 2 2 2 1 1 1
Wind_Speed
7 8 7 5 5 6 5 6 4 1 1 3 3 4 4 4 4 3 2 2 1 1 2 2 2 1 1 1 1 0 1 0 1 1 1 1 1 1 2 2 1 2 3 3
8 8 5 4 5 6 6 7 4 2 2 3 3 3 3 3 3 2 2 2 1 1 1 1 1 1 1 1 0 1 0 1 1 1 2 2 2 2 2 2 2 3 3 3
7 2 2 4 5 6 7 7 5 3 3 5 6 6 6 5 4 3 2 1 1 1 1 1 1 0 0 0 0 1 1 2 2 2 1 1 2 3 2 2 2 2 3 4
5 3 5 6 5 6 5 3 5 6 8 5 7 5 6 6 5 4 2 2 1 1 1 1 1 1 0 1 0 0 1 1 1 2 2 2 2 2 2 3 2 2 3 4
4 4 5 6 3 5 4 2 5 7 8 6 7 7 4 5 4 3 3 2 1 1 2 2 1 1 1 1 0 0 1 1 1 2 2 3 3 2 2 3 2 3 2 3
3 3 3 3 2 2 2 4 5 8 8 8 4 6 2 2 1 1 2 2 1 1 1 1 1 0 0 0 0 0 1 1 1 2 2 3 3 3 3 3 3 3 2 2
6 6 3 2 3 5 5 6 6 8 7 3 2 4 1 3 1 1 0 1 1 1 1 1 0 0 0 0 0 0 1 1 1 2 2 2 3 3 4 3 3 3 2 2
5 5 4 2 3 4 5 7 6 7 6 2 3 3 3 3 1 0 0 1 1 1 0 0 1 0 0 1 1 1 1 2 2 2 2 2 3 3 2 2 3 3 2 2
3 2 4 2 2 4 5 5 5 8 7 6 2 1 3 2 1 1 1 1 1 0 0 0 0 1 1 0 1 1 1 2 2 2 2 2 2 3 2 2 3 2 2 2
3 4 3 3 4 2 4 3 4 7 6 7 3 3 1 1 0 0 1 1 1 1 1 1 1 1 1 0 0 1 1 2 2 2 2 1 2 2 2 3 2 3 3 3
3 4 4 5 3 2 3 4 5 6 6 7 5 1 5 1 2 2 1 1 1 1 1 1 1 1 0 0 0 1 1 2 2 2 2 2 2 2 2 2 2 2 2 2
2 4 3 3 2 1 3 3 5 6 5 5 6 1 5 2 1 1 1 1 1 0 0 0 0 0 0 0 0 0 1 2 2 2 2 2 3 2 3 2 2 2 2 2
2 4 5 7 7 4 3 2 4 5 5 6 7 1 4 1 1 0 0 1 1 1 1 0 1 0 1 1 1 1 1 1 2 2 2 2 2 2 2 2 2 2 2 2
3 4 5 5 3 1 3 3 4 6 6 5 6 4 1 1 2 1 1 1 1 1 1 0 0 1 1 1 1 1 1 1 2 2 2 2 2 2 2 2 2 2 2 2
4 5 4 4 3 4 4 4 4 5 6 7 6 5 4 3 3 2 1 2 1 1 1 1 1 1 1 2 1 2 1 2 2 2 2 2 2 2 2 2 2 2 2 2
3 4 4 5 4 5 6 5 5 5 6 6 6 4 3 3 2 2 2 2 2 1 1 1 1 1 2 2 2 2 2 2 2 2 2 1 1 2 2 2 2 2 2 2
4 5 6 6 4 6 7 4 4 3 3 4 5 3 1 2 2 2 2 2 2 2 1 1 2 2 2 2 2 2 2 2 2 2 2 2 2 2 2 2 2 2 2 2
5 6 5 5 5 7 2 2 1 1 1 2 2 2 1 2 2 2 1 2 2 2 2 2 2 2 1 2 2 2 2 2 2 2 3 3 2 2 2 3 3 2 2 2
6 6 5 5 6 5 4 3 3 3 1 0 2 1 1 2 2 2 1 2 3 3 2 2 2 1 1 2 2 2 2 2 3 3 3 3 3 3 3 3 3 3 3 3
6 7 7 6 7 5 2 3 1 4 3 2 1 2 1 2 3 1 2 2 3 3 2 2 2 2 1 2 2 2 3 3 3 3 3 4 4 4 4 4 4 3 3 3
7 7 8 8 7 2 4 3 4 5 2 3 1 2 2 3 5 4 1 2 2 2 2 2 2 2 1 2 2 3 3 4 4 4 4 4 4 4 4 4 3 3 3 3
6 5 6 6 7 2 5 3 1 3 3 1 2 2 3 4 4 3 2 1 2 2 2 2 2 2 2 2 3 4 4 4 4 4 4 4 4 4 3 3 3 4 4 4
4 4 3 3 2 5 4 2 2 1 1 2 3 3 3 4 4 3 2 2 2 2 2 3 3 3 2 3 4 4 4 4 4 4 4 4 4 3 3 4 4 4 4 4
3 1 3 2 2 2 2 1 0 1 2 3 3 3 3 4 4 4 3 2 2 2 3 3 4 3 3 3 4 4 4 4 4 4 4 4 3 4 3 4 4 4 3 3
2 3 4 4 2 2 2 1 2 3 3 3 3 3 3 4 4 4 3 3 2 2 3 3 3 4 4 4 4 4 3 3 4 5 5 4 4 3 3 3 3 4 3 2
4 4 5 3 1 2 2 3 3 3 3 3 3 4 4 4 4 4 3 3 2 2 3 3 4 4 4 4 4 4 4 3 4 4 4 4 4 3 3 3 3 2 3 1
Wind_Direction
196 228 228 229 249 287 278 268 268 275 125 241 218 187 168 162 174 176 177 172 164 151 131 134 154 156 140 129 118 205 295 305 270 253 255 263 254 255 252 250 239 245 255 252
211 227 236 237 242 253 246 255 247 173 166 245 213 202 177 176 186 192 205 192 192 179 137 142 144 134 156 132 101 264 255 286 274 269 273 277 283 270 263 262 235 244 249 252
240 210 188 226 225 233 236 258 260 232 183 201 212 205 194 184 189 188 209 219 201 222 182 137 139 201 26 42 323 301 306 281 285 287 271 269 248 250 254 259 242 242 249 250
232 213 215 226 226 254 249 251 252 223 227 211 226 254 174 183 189 191 201 212 236 231 217 208 217 243 264 289 338 15 271 271 272 257 266 273 276 289 300 280 268 260 247 250
211 216 233 238 252 265 290 273 241 234 247 248 220 259 160 176 208 204 195 199 224 237 231 217 215 227 232 223 236 195 266 274 271 263 255 257 265 285 299 298 286 272 255 252
226 202 250 267 265 249 223 213 216 231 241 245 239 266 210 167 237 200 158 168 210 236 233 225 201 195 259 251 241 345 303 310 286 260 265 256 262 276 283 281 283 276 272 263
197 177 168 209 220 189 228 247 235 224 225 234 130 257 49 78 38 348 24 109 167 222 235 263 3 338 288 223 307 339 290 289 283 269 266 266 268 265 261 272 271 278 281 274
232 188 158 187 264 263 240 260 281 289 292 304 187 252 84 86 84 71 96 128 149 201 197 296 299 282 225 204 232 248 275 286 277 267 267 274 274 271 279 282 286 276 282 292
268 202 137 158 254 267 242 255 304 282 276 274 242 175 148 157 181 191 182 169 164 149 87 318 341 334 304 232 255 268 267 278 271 262 253 252 257 279 301 290 273 284 291 285
275 246 182 163 205 174 293 280 251 265 281 277 249 243 279 137 292 252 242 197 126 98 64 23 352 328 312 259 269 312 293 282 278 275 272 261 260 269 280 285 296 297 296 297
266 246 191 190 226 253 211 226 267 275 290 292 292 2 52 26 328 308 275 193 149 99 18 342 325 1 47 68 292 265 269 266 269 276 273 275 272 267 269 274 284 291 295 299
246 267 235 191 118 307 272 278 268 273 273 269 286 352 83 41 10 318 281 151 142 138 252 287 24 71 80 53 280 263 266 265 268 262 254 260 269 266 268 276 287 294 296 294
199 242 238 195 175 176 210 233 260 271 275 273 278 4 99 94 41 10 253 138 145 188 229 81 68 28 5 339 302 280 257 274 283 272 261 262 263 262 267 282 291 297 293 290
246 249 269 290 327 300 240 229 240 259 268 277 285 304 283 301 316 296 206 185 182 210 230 262 47 13 354 327 312 294 285 284 281 283 280 271 267 266 264 278 282 276 277 282
241 239 238 258 263 257 263 262 254 257 276 282 296 299 330 333 303 286 222 199 211 222 266 319 330 336 309 296 296 303 291 280 286 277 271 263 260 254 250 263 264 267 272 277
229 250 241 242 233 243 255 253 255 259 266 273 280 291 352 331 294 246 212 206 222 246 269 290 275 276 276 280 282 289 284 269 268 271 272 261 250 246 242 246 249 256 269 281
207 227 244 249 237 250 247 248 245 239 247 270 284 318 343 311 289 235 205 215 234 255 262 257 258 260 266 272 268 271 262 262 260 262 266 252 241 232 240 253 260 264 268 274
225 236 248 253 241 250 79 83 231 232 233 256 275 308 301 312 292 253 240 253 259 266 272 265 256 263 274 275 267 273 255 262 263 265 267 264 253 247 255 260 265 269 265 263
226 230 246 250 248 249 165 167 199 223 207 334 290 310 329 337 254 203 185 279 275 273 265 260 258 252 265 274 271 258 266 263 267 274 280 279 272 262 258 263 270 271 263 258
196 223 242 242 258 260 99 112 181 237 205 92 334 301 308 277 265 57 62 298 283 266 247 258 261 255 249 269 262 252 260 267 279 289 288 285 279 269 266 267 266 261 259 260
194 208 231 242 247 238 81 119 202 240 54 61 353 317 295 282 318 355 333 279 268 246 232 236 247 252 250 255 257 263 267 273 283 287 280 275 273 261 258 259 259 253 250 262
239 230 224 239 244 202 108 148 230 26 55 29 341 322 304 299 315 318 298 275 247 229 219 227 242 258 257 249 256 266 273 279 282 281 275 272 269 264 253 251 256 254 255 248
255 297 297 292 6 75 114 114 78 48 310 318 313 314 296 294 303 307 292 279 261 247 223 225 240 251 255 250 258 271 285 286 281 277 274 274 272 268 265 258 253 250 246 259
196 262 246 227 179 150 152 161 211 288 296 309 316 312 298 294 301 309 300 283 268 253 239 232 246 255 255 258 263 271 278 279 274 274 272 267 261 257 259 265 261 264 269 275
268 220 232 234 236 244 212 275 309 301 294 298 303 303 299 291 291 295 291 283 272 259 256 250 253 261 264 266 267 272 277 270 270 274 270 263 256 255 261 259 272 274 290 316
240 246 254 272 297 284 295 316 315 304 298 301 300 298 297 292 292 293 295 294 280 274 273 266 259 261 263 261 266 270 273 264 257 257 259 262 264 256 258 258 248 219 251 165